Wind_Speed
15 14 13 14 14 12 12 12 11 10 9 8 7 8 8 7 5 4 4 3 2 2 3 6 8 9 11 13 13 11 11 12 12 11 10 12 15 16 15 16 17 18 20 20 19 19 19 20 22 22 22 21 19 17 16 18 19 20 21 21 20 23 26 28 28 28 28 30 29 28 27 25 22 20 19 20 21 23 22 20 17 17 16 15 15 13 10
14 14 13 14 15 14 14 13 13 12 10 10 9 9 10 8 6 6 5 4 4 4 4 5 6 8 9 10 12 12 12 14 14 12 11 12 15 16 16 16 16 17 18 18 17 17 19 21 22 22 21 19 19 17 16 17 17 17 18 18 19 22 25 27 29 29 29 30 28 27 27 26 25 23 22 22 23 23 23 22 21 20 18 16 15 13 10
14 14 14 14 16 16 16 16 15 14 12 11 11 11 11 10 9 7 7 6 6 6 6 6 6 7 8 9 11 12 12 14 16 15 13 13 15 17 18 18 17 16 16 17 17 16 17 18 19 20 19 17 19 18 15 15 15 16 17 16 17 20 22 27 29 28 29 30 27 26 27 28 27 25 24 24 24 24 23 23 24 22 19 17 16 14 11
14 14 14 14 15 17 17 18 17 16 14 13 13 13 13 12 11 9 8 8 8 8 8 8 8 7 8 10 12 12 13 14 16 17 16 14 15 17 19 20 18 16 15 15 16 17 16 16 16 18 17 15 17 18 13 11 15 17 18 17 17 17 20 25 28 28 29 30 28 26 28 29 29 26 24 23 24 25 24 23 24 24 22 20 18 16 15
15 14 14 14 14 15 16 17 17 17 16 14 14 14 14 14 13 11 10 9 9 9 9 9 9 9 9 11 12 12 13 14 15 16 15 15 14 16 19 21 19 17 16 15 16 17 16 15 15 17 16 14 16 17 13 12 16 20 19 19 19 17 17 23 26 27 29 30 29 28 28 29 28 25 23 22 24 25 24 23 24 25 26 23 19 18 17
15 15 14 14 14 14 14 15 16 17 16 15 15 15 15 15 14 13 12 11 10 10 10 10 10 10 10 11 12 12 13 14 15 15 14 14 14 15 18 21 20 18 17 15 15 16 16 16 15 15 15 15 15 15 13 13 16 19 19 19 20 18 15 19 25 27 28 30 30 30 30 29 26 24 23 22 23 24 24 24 25 26 27 24 20 19 17
16 15 15 15 14 14 14 14 14 15 16 16 16 16 16 16 15 14 13 12 12 11 11 11 12 12 11 11 12 13 14 14 15 16 15 15 15 15 18 22 22 21 19 17 16 15 15 16 16 14 13 15 16 15 13 14 15 17 17 16 17 17 14 15 21 24 27 29 31 31 31 29 26 25 24 24 24 24 23 23 24 26 27 25 23 22 19
16 15 15 15 15 15 15 14 13 13 14 15 16 17 17 17 17 16 15 14 13 13 12 12 13 13 12 12 12 12 12 13 14 16 17 17 17 17 18 21 24 24 22 20 18 17 16 15 16 14 13 15 17 16 14 16 17 17 16 14 15 16 14 14 16 19 23 29 31 33 32 30 28 27 27 26 25 24 24 24 23 23 24 24 24 23 20
17 16 16 15 16 16 16 15 14 13 13 14 16 17 17 18 18 17 16 16 15 14 14 14 14 14 13 13 13 12 12 11 12 14 16 18 19 19 18 19 22 25 25 24 22 20 19 16 16 15 15 15 18 18 17 17 17 17 17 16 16 16 14 14 16 17 21 26 31 33 33 31 29 29 28 27 27 26 26 25 22 21 21 21 21 20 19
17 17 17 16 16 17 16 16 15 14 14 14 15 17 18 18 18 18 18 17 16 16 16 16 16 16 15 14 14 14 14 13 12 13 14 15 18 19 18 18 19 23 26 27 26 24 22 19 17 16 17 18 19 20 19 19 18 18 18 17 17 17 15 14 14 16 20 24 28 32 34 32 29 28 27 27 28 28 27 25 22 21 21 21 20 19 18
18 18 18 17 17 17 17 16 16 15 15 14 14 16 17 18 19 19 19 19 18 18 18 18 18 17 16 16 15 15 16 15 15 15 14 14 16 17 18 18 18 20 23 27 29 28 26 23 20 19 20 21 21 22 21 21 20 20 20 19 19 19 17 14 12 14 19 22 25 30 35 35 32 30 29 29 29 29 28 25 22 20 20 21 21 20 20
20 20 19 19 18 18 18 17 16 16 16 15 15 15 17 18 19 20 20 20 20 20 20 19 19 19 18 17 17 16 17 17 17 16 16 15 16 17 18 19 20 20 21 24 28 31 30 28 25 23 23 23 23 24 24 24 24 23 23 22 20 19 17 14 12 12 15 19 23 28 34 37 35 33 32 32 32 31 29 26 24 21 19 19 19 20 21
22 21 21 21 20 20 20 19 18 18 17 17 17 16 16 17 19 20 21 21 21 21 21 21 21 20 20 19 18 18 18 18 18 18 18 18 18 18 19 20 22 23 23 23 25 29 32 32 30 27 26 25 25 25 26 26 26 25 25 24 22 19 16 13 12 11 12 14 19 24 31 36 38 37 35 34 34 34 31 28 26 24 21 20 20 20 22
24 23 23 23 22 22 21 21 20 20 19 19 19 18 18 18 19 20 21 22 22 22 23 23 23 22 21 20 20 19 20 20 20 20 20 20 20 20 20 21 22 24 25 25 25 25 29 32 33 32 30 29 28 27 28 28 28 28 27 25 23 19 15 13 13 13 13 14 16 19 25 31 36 37 37 36 35 35 33 30 28 26 24 24 24 23 23
25 25 25 25 25 24 23 23 22 22 21 21 20 20 19 19 19 19 21 22 23 24 24 24 24 24 24 22 21 21 21 22 23 22 22 22 21 21 21 21 21 22 24 26 26 25 25 28 31 33 34 34 33 32 31 30 30 29 28 27 24 20 16 14 14 15 15 14 16 19 21 24 29 32 35 36 36 35 34 32 30 29 27 27 27 26 25
27 27 27 26 26 26 25 24 24 23 22 22 21 21 20 20 19 19 20 21 23 24 25 25 25 26 25 24 23 22 22 23 24 25 25 24 23 22 21 21 20 21 21 24 27 27 25 25 26 27 30 33 35 35 35 33 31 31 30 29 26 23 20 19 19 19 18 15 16 20 21 21 23 27 30 33 33 33 34 33 31 31 31 30 30 29 29
29 29 28 28 28 28 27 26 25 24 24 23 22 22 21 21 20 20 20 21 22 23 24 25 26 26 26 26 25 24 24 24 25 26 27 26 25 25 23 21 21 20 20 22 25 27 26 25 25 23 23 25 28 31 34 35 34 33 32 31 29 27 24 21 20 21 22 19 16 19 21 19 20 23 26 29 31 32 33 32 32 34 35 34 35 35 35
31 30 30 30 29 29 28 28 27 26 25 25 24 24 23 22 22 22 21 21 22 22 23 25 26 27 27 27 26 26 26 25 26 27 28 28 28 27 25 23 22 22 21 22 24 25 26 25 24 23 21 21 23 26 30 34 35 35 34 34 32 30 27 24 22 23 25 24 20 20 20 19 19 21 23 26 28 30 30 30 33 35 36 36 37 36 37
33 32 32 31 31 31 30 30 29 28 28 27 27 26 26 25 24 24 23 23 23 23 23 25 26 27 27 28 28 27 27 27 27 27 28 29 29 29 28 26 24 23 24 24 24 25 25 25 25 24 23 23 23 23 25 28 30 32 33 34 34 33 31 29 27 26 27 25 22 22 21 19 20 21 21 23 24 25 25 27 29 30 31 32 32 31 32
35 34 34 33 33 32 32 32 31 31 31 30 30 29 29 29 28 27 26 25 25 25 25 25 26 26 27 28 29 29 29 29 28 27 28 29 30 31 31 30 28 26 25 26 26 26 26 25 25 26 26 25 25 24 24 24 26 27 29 31 33 33 32 31 29 28 27 24 23 24 23 21 20 19 19 21 22 22 23 25 26 26 27 27 27 27 28
35 35 35 35 35 34 34 34 34 34 34 33 33 33 32 32 32 31 30 29 28 28 28 27 27 27 27 28 29 29 30 30 29 28 29 29 30 31 33 32 31 30 28 28 27 28 27 26 26 26 27 28 28 26 25 25 24 25 26 27 28 28 27 27 26 25 23 23 25 26 25 21 20 19 19 19 19 20 21 21 22 23 24 23 23 24 24
36 36 36 37 37 37 37 37 37 37 37 37 37 37 36 36 36 35 34 33 32 32 31 30 29 30 29 29 29 30 31 31 30 30 30 30 31 32 33 33 33 33 32 30 29 29 28 28 27 26 26 27 28 28 27 26 25 25 25 25 25 25 24 23 23 22 21 22 25 27 26 23 21 20 19 18 17 16 16 16 17 19 20 20 21 21 21
38 38 39 39 40 40 40 40 40 41 41 41 41 41 40 40 40 39 39 38 37 36 35 34 33 33 32 31 30 31 31 31 31 31 32 32 32 32 33 33 33 34 34 33 32 31 30 30 29 28 27 27 27 28 29 28 27 27 26 26 26 25 25 24 23 22 21 22 25 27 27 25 24 22 21 19 17 16 15 16 17 18 19 20 20 20 19
42 42 43 43 44 44 44 44 44 44 44 44 44 44 44 43 43 43 43 42 41 40 40 39 37 36 35 34 33 33 32 32 32 32 33 33 33 33 33 33 34 34 34 34 34 34 33 32 32 31 30 28 27 27 28 29 29 28 27 27 27 27 26 26 25 24 23 23 25 27 27 27 26 25 23 21 20 19 19 18 17 17 17 17 17 16 15
45 46 46 47 48 48 49 49 48 48 48 47 47 47 47 46 46 46 47 46 45 44 43 43 42 41 39 37 36 35 34 33 33 33 34 35 35 35 34 33 34 34 35 35 35 35 35 34 34 33 32 30 29 28 27 28 28 28 28 28 27 27 27 27 27 26 24 24 26 27 27 27 27 26 25 24 23 22 21 19 18 18 17 15 13 13 12
48 49 50 51 52 52 53 53 53 53 53 52 52 52 52 51 50 50 51 50 49 48 47 47 47 46 44 41 40 39 37 36 36 35 36 37 37 37 36 35 34 35 35 36 36 36 36 36 35 35 34 33 31 30 29 28 27 26 26 27 27 27 27 27 27 27 26 26 27 27 28 28 27 26 25 24 24 23 21 20 19 19 18 16 14 13 11
51 51 52 53 54 55 56 57 58 58 59 59 59 59 58 58 57 56 55 54 54 53 52 50 50 50 49 47 45 42 40 39 39 38 37 38 38 38 38 37 36 36 36 37 37 37 37 36 36 36 37 35 33 32 31 30 28 26 25 26 26 27 28 28 28 28 28 27 27 28 28 28 27 26 25 25 24 23 22 21 20 20 18 17 16 14 12
51 52 53 54 55 56 58 59 60 61 62 63 64 64 63 63 63 62 61 60 59 58 56 55 54 53 53 52 50 47 44 42 42 41 40 39 40 40 40 39 39 38 38 38 38 38 38 37 37 38 38 37 36 34 33 32 30 28 26 26 27 27 28 29 29 29 29 29 28 28 28 28 27 26 26 26 26 25 24 23 23 22 20 18 16 15 14
51 52 53 54 54 55 56 57 58 60 61 62 63 65 65 65 65 65 65 64 64 63 61 60 58 57 55 54 54 52 49 45 43 43 42 41 41 41 41 41 41 41 40 40 39 38 38 38 38 38 38 38 38 36 34 33 31 28 27 28 29 28 27 28 28 29 30 30 30 29 28 27 27 26 26 26 26 27 27 26 25 23 22 20 17 15 15
49 50 50 50 50 50 51 51 52 53 53 54 57 60 62 63 64 64 65 65 66 66 66 64 62 61 59 57 56 55 53 50 46 45 44 44 43 43 43 43 42 42 42 41 40 40 40 39 39 39 39 39 39 38 36 34 31 28 28 30 30 29 28 28 28 28 30 31 30 29 28 28 28 27 26 26 26 26 27 27 26 25 24 22 19 17 15
43 42 41 41 40 40 41 41 42 42 43 44 46 49 52 54 57 59 61 63 65 66 67 67 66 64 62 61 60 58 55 53 50 48 47 46 45 45 45 44 43 43 42 42 42 42 41 40 40 40 40 40 40 38 36 35 32 28 28 29 30 29 30 29 28 28 29 29 28 28 28 29 29 29 28 28 27 26 27 27 27 27 26 24 23 20 17
34 33 33 33 34 35 36 37 38 39 39 41 43 45 46 46 48 50 53 56 59 62 65 66 67 66 64 63 62 61 58 55 52 50 49 48 47 47 46 45 44 43 43 43 44 43 42 41 41 41 41 42 41 38 37 35 32 29 29 31 31 30 30 30 30 29 29 28 28 26 26 27 28 28 28 29 28 28 28 28 28 29 28 27 25 22 20
32 33 34 35 36 37 38 40 41 42 43 45 47 48 47 46 46 47 47 49 51 56 60 63 65 65 64 63 62 61 60 58 55 52 51 50 49 48 48 46 45 44 43 43 43 43 43 42 42 42 42 42 41 39 37 34 31 30 31 33 33 32 32 31 30 30 29 30 29 27 27 27 26 25 26 27 28 29 29 29 29 30 30 28 26 24 22
35 37 38 39 40 41 43 44 46 47 48 49 52 53 52 51 51 51 51 50 50 52 55 59 62 63 64 64 62 60 60 60 58 55 53 52 50 49 49 48 47 45 43 42 43 43 43 43 43 43 43 42 41 39 36 33 31 31 33 35 35 34 33 32 31 30 30 31 30 28 27 27 25 23 24 25 26 27 28 29 30 31 30 29 27 25 23
41 42 43 45 46 47 48 48 49 50 52 54 56 56 55 56 57 57 56 55 54 52 52 55 58 60 61 61 61 60 60 60 60 58 56 53 52 51 50 49 48 47 44 43 42 42 43 44 44 44 43 43 42 38 34 32 32 33 35 36 37 36 35 33 32 32 32 31 30 28 27 26 25 24 24 24 25 25 26 27 29 30 30 29 28 26 24
44 45 46 46 46 46 47 48 50 53 55 56 56 57 58 58 59 58 57 56 55 53 50 51 53 55 56 57 58 59 58 58 59 59 58 55 53 52 51 50 49 47 46 45 42 42 43 44 45 44 44 43 40 37 35 34 34 35 35 36 38 39 37 35 34 34 33 32 29 28 27 26 26 25 25 25 25 25 25 25 27 28 28 28 27 26 24
42 42 41 41 41 43 46 49 52 53 53 52 52 53 53 51 50 50 50 51 51 50 48 47 47 49 52 53 54 55 56 57 57 58 58 56 54 53 51 50 49 48 47 45 43 42 43 44 44 44 43 41 39 38 37 37 37 36 36 37 39 40 39 37 36 35 34 32 29 28 27 27 27 27 27 26 25 25 25 25 25 26 26 27 28 28 26
36 36 37 38 41 44 47 50 50 48 46 44 42 40 37 35 36 38 40 42 45 45 44 42 41 43 47 49 49 51 54 55 56 56 57 56 55 53 52 51 50 49 48 46 44 43 43 42 42 41 41 40 39 39 40 39 38 38 38 38 39 40 40 39 38 37 35 32 30 28 28 27 28 28 27 26 25 25 25 25 25 25 25 26 28 28 27
32 34 36 38 41 44 45 45 43 40 38 36 33 29 25 24 27 30 32 34 37 38 38 38 37 39 42 44 44 46 50 53 53 55 55 55 54 54 52 51 50 49 48 47 46 44 43 42 40 39 39 39 40 41 42 42 40 40 40 40 41 41 40 40 39 38 35 32 30 29 29 28 29 29 27 25 24 24 24 25 25 25 25 26 27 27 27
30 33 35 37 40 41 41 38 35 34 33 31 28 26 24 23 23 25 27 28 30 32 33 34 35 36 38 39 40 42 46 49 51 52 54 54 53 53 52 51 50 49 48 47 45 44 44 42 40 39 39 40 42 44 45 43 41 40 41 41 41 41 40 39 38 38 36 34 32 30 30 30 30 29 28 26 25 24 24 25 26 25 25 26 26 27 29
29 31 33 35 37 38 35 32 30 30 29 27 25 25 24 21 21 23 24 24 25 27 29 31 32 33 34 36 37 39 41 44 47 50 51 52 52 51 51 51 50 49 48 47 45 44 44 43 41 40 41 42 43 45 44 42 41 40 40 41 41 41 40 39 37 37 37 36 34 32 31 30 30 30 29 28 27 26 25 25 25 25 24 25 26 28 29
28 30 31 33 34 34 31 28 27 26 25 23 21 21 20 18 18 21 22 22 23 24 25 27 29 31 32 33 34 37 39 41 44 46 48 50 50 50 50 50 49 48 48 47 46 45 44 43 42 42 43 43 43 43 43 42 40 40 40 41 41 41 40 38 37 37 37 37 36 35 34 32 32 31 31 30 29 27 26 26 25 24 24 26 28 30 31
27 28 29 30 31 31 28 25 24 23 21 19 17 16 15 16 18 19 20 21 23 23 23 23 25 28 30 31 32 34 37 39 41 43 45 48 49 49 49 50 49 48 47 47 46 46 45 44 43 44 44 44 43 43 42 41 40 40 40 41 41 41 40 39 38 37 38 38 37 37 37 36 34 33 32 31 30 29 28 27 26 25 26 27 30 33 34
26 27 27 28 28 28 26 24 23 22 20 17 14 13 13 15 17 17 18 20 21 22 22 22 23 25 27 28 29 31 34 36 38 40 43 46 47 48 48 49 49 48 47 47 47 46 45 46 46 45 44 43 43 43 42 41 40 40 41 41 42 41 40 40 39 38 39 39 38 39 39 38 37 35 33 32 31 30 29 28 27 28 29 30 31 32 31
25 25 26 26 26 26 24 22 22 21 19 17 15 14 13 14 14 15 16 18 18 17 17 19 21 23 24 25 27 30 32 34 36 39 41 43 45 46 46 48 48 48 48 48 48 47 46 47 47 45 44 44 44 43 42 40 40 41 41 42 43 42 41 40 40 40 39 39 39 39 40 40 38 36 34 33 32 31 30 29 29 30 31 31 29 27 25
24 24 23 24 24 23 22 20 19 19 17 16 14 13 12 11 10 11 13 16 18 18 17 19 22 23 23 24 26 29 30 32 35 37 39 41 43 44 45 46 47 48 48 48 48 48 48 48 47 46 46 45 45 44 42 41 41 41 42 44 44 44 42 42 41 41 40 39 39 40 41 40 39 38 36 34 32 31 30 29 30 31 32 31 28 26 24
22 22 22 22 22 22 20 18 17 16 15 14 13 11 10 10 9 10 11 14 18 19 20 21 22 22 22 24 26 28 29 31 34 36 38 39 41 42 43 45 46 47 48 48 49 49 49 49 48 48 47 47 46 45 44 42 42 42 43 44 45 45 43 42 42 42 41 40 39 40 41 41 40 38 37 35 34 32 31 30 30 31 32 31 31 31 31
21 21 21 21 21 20 19 17 16 16 15 13 11 10 9 9 10 11 11 12 14 16 19 20 21 21 21 23 26 28 29 31 33 35 37 38 40 41 42 43 45 46 47 48 49 50 50 49 49 48 48 47 47 46 45 44 44 44 44 45 46 46 44 43 43 43 42 41 40 41 42 42 40 39 37 36 35 34 32 30 30 30 31 32 33 34 34
21 20 20 20 20 19 18 17 16 15 13 11 10 9 9 9 10 11 11 10 11 14 16 17 19 19 20 22 24 26 28 30 32 34 36 37 38 39 40 41 42 44 45 46 47 49 50 49 48 48 48 48 48 48 46 45 45 45 45 46 47 46 45 44 43 44 43 42 41 42 42 42 41 40 38 37 36 36 34 31 30 29 30 32 33 33 33
21 20 19 19 20 20 18 17 16 14 12 11 11 10 9 9 10 10 9 9 11 13 15 16 16 18 19 21 24 26 27 29 31 33 35 36 37 38 39 39 40 41 43 43 44 45 46 46 46 47 48 49 49 49 48 47 47 46 46 47 47 48 46 45 44 44 44 44 43 43 43 42 41 40 38 37 37 37 35 33 30 29 31 32 33 33 33
20 19 18 18 19 19 19 18 17 15 13 11 10 10 9 10 11 11 10 10 11 12 14 15 16 17 18 21 23 25 26 28 30 32 33 35 37 37 38 38 39 40 41 41 42 43 43 43 44 45 47 48 49 49 49 48 47 47 47 48 48 48 47 46 45 44 44 44 44 44 43 42 41 39 38 38 37 37 36 33 31 30 32 32 32 31 31
19 19 18 17 17 17 17 18 19 19 16 12 10 10 10 11 12 12 12 12 12 13 14 16 16 16 17 20 22 24 25 28 30 32 33 34 36 37 38 39 40 41 41 41 41 42 42 42 42 44 45 47 48 49 49 48 48 47 47 48 49 49 49 47 46 44 44 44 45 45 44 42 41 39 39 38 37 36 35 34 32 32 32 32 31 30 29
Wind_Direction
296 288 279 274 275 278 280 283 287 285 273 262 255 249 251 258 249 228 225 211 174 162 179 194 208 216 218 219 219 212 199 197 204 209 211 216 217 213 204 191 178 167 166 166 167 167 166 165 168 176 182 183 182 184 188 196 201 200 199 198 196 200 204 204 206 206 204 203 204 205 209 214 214 212 214 216 217 222 226 228 229 236 245 255 266 280 292
294 287 279 273 271 272 274 276 278 278 273 262 251 245 244 247 244 231 224 214 186 168 172 187 200 210 216 221 222 220 207 199 206 220 222 219 223 224 216 202 188 177 175 176 178 178 173 170 174 178 180 179 178 178 184 194 194 193 197 196 193 197 199 199 202 204 202 202 203 205 210 212 208 208 213 214 216 221 225 228 230 231 236 246 260 276 290
292 286 281 275 271 270 271 271 271 271 269 261 251 245 242 241 241 235 226 218 203 184 174 180 197 208 216 224 225 222 215 207 212 228 235 224 221 226 221 212 202 191 184 185 191 191 182 179 182 181 177 178 176 175 183 193 190 189 193 192 192 195 197 197 201 202 201 202 204 207 211 211 207 209 214 216 220 224 226 230 235 237 238 243 255 269 279
290 285 281 279 276 273 270 269 267 265 263 259 251 245 242 240 238 235 229 222 213 200 189 183 189 199 210 222 227 223 218 216 219 230 240 233 221 220 220 215 209 200 193 192 195 197 193 189 190 188 182 178 178 180 185 185 183 188 190 190 191 193 196 199 200 201 201 202 206 209 211 211 211 214 219 221 224 227 230 233 237 240 241 243 252 265 272
289 284 280 280 280 278 275 270 266 262 259 257 251 245 242 241 238 235 231 226 219 212 206 197 189 188 195 210 221 222 215 216 222 230 239 237 224 218 217 216 212 205 199 197 198 201 202 197 195 198 194 184 181 187 191 182 185 192 191 190 193 195 198 200 198 198 200 203 207 210 209 210 212 218 223 227 230 230 233 236 238 241 242 242 249 260 265
286 283 277 276 277 280 279 274 268 262 258 255 250 244 242 241 240 237 235 232 226 219 216 213 206 197 193 197 209 217 215 217 224 230 235 237 229 222 219 216 215 212 205 202 204 207 207 204 202 207 211 203 192 194 198 193 195 201 199 198 199 200 204 202 198 199 201 203 207 207 206 208 212 216 223 230 234 233 233 236 237 240 243 243 243 248 255
283 281 275 271 272 275 278 277 272 264 257 254 250 244 240 240 240 239 237 235 231 225 221 221 221 216 210 205 207 214 216 219 226 229 231 236 234 229 225 220 217 217 212 206 209 214 215 213 211 215 222 219 209 207 208 205 207 208 205 205 206 207 215 213 205 206 207 206 207 206 206 210 215 217 222 228 232 234 236 240 242 242 243 243 238 240 250
279 278 274 269 268 270 273 275 274 267 258 252 249 244 239 238 239 239 239 237 234 230 225 225 226 226 224 221 218 218 217 220 227 229 229 236 240 237 233 227 222 221 217 211 211 216 218 218 219 223 230 226 218 217 216 212 214 216 209 208 211 211 220 228 222 220 218 213 210 209 209 214 217 218 222 226 229 233 239 245 250 247 242 240 239 242 252
277 275 273 269 267 268 269 270 270 268 261 252 247 244 240 237 238 238 239 238 236 233 230 228 229 228 227 226 224 224 222 218 224 229 229 235 243 244 240 232 226 224 222 218 215 216 217 218 221 225 230 229 224 223 223 217 218 223 220 219 223 222 226 232 230 231 232 224 217 214 212 213 215 218 224 227 228 233 239 245 250 248 240 237 241 246 252
274 272 271 269 267 267 267 266 266 265 264 257 249 244 241 238 237 238 238 239 238 237 235 232 231 229 227 226 225 227 229 223 222 230 232 232 238 242 241 236 231 228 226 224 221 219 220 220 220 220 223 227 228 227 227 224 223 228 228 228 233 236 240 243 237 235 238 233 226 221 216 212 213 218 223 225 227 232 238 242 245 245 242 241 244 246 249
271 270 269 267 266 266 265 264 263 262 262 260 254 247 243 241 239 238 239 239 239 240 239 236 235 232 229 227 225 227 230 228 224 227 232 231 230 233 236 236 237 235 231 228 225 223 222 222 222 221 220 224 229 230 229 228 228 231 233 235 239 244 252 261 257 245 241 237 232 228 222 218 217 219 221 224 228 233 238 239 241 244 244 246 248 249 252
269 268 267 266 264 264 263 261 261 261 260 260 258 252 247 243 242 240 240 239 240 241 242 240 239 236 233 229 226 226 229 231 228 225 227 229 225 224 228 231 234 236 234 230 227 225 224 223 223 224 224 224 227 230 231 231 231 233 236 239 243 249 257 266 268 259 249 241 235 232 227 224 222 222 222 224 229 235 239 239 239 240 243 247 251 254 257
267 266 266 265 263 262 261 260 259 260 260 259 258 256 251 247 244 243 242 240 240 241 243 244 242 240 237 233 229 226 228 231 232 228 226 226 223 220 222 226 229 232 232 232 231 228 226 225 224 225 227 228 229 231 233 233 233 235 239 243 248 252 258 268 278 282 274 256 243 235 229 227 227 227 227 227 229 234 238 239 239 240 241 246 250 254 259
268 265 264 264 262 260 260 259 258 258 259 258 258 257 254 251 248 246 245 243 241 241 242 244 245 244 242 237 232 228 227 230 233 233 230 228 225 221 221 225 228 231 233 234 235 232 228 227 227 227 229 230 231 233 234 234 235 236 239 246 251 251 253 268 279 281 277 269 257 244 233 229 229 231 232 234 234 235 237 238 241 243 245 248 248 251 256
270 267 264 263 261 259 258 258 258 257 257 257 257 256 254 253 252 250 248 247 245 243 243 243 244 245 245 242 237 232 228 228 230 233 234 232 230 224 222 224 230 235 236 235 234 233 230 228 229 230 232 233 234 235 236 236 237 239 241 245 248 246 248 260 268 270 273 270 258 248 240 234 233 233 234 237 238 238 238 238 240 243 246 248 248 249 255
273 269 265 262 260 259 257 256 256 256 256 256 255 255 254 253 252 251 250 250 249 247 246 245 245 245 246 245 242 236 231 228 229 231 233 234 233 229 224 223 228 234 235 232 231 231 230 230 233 234 235 236 236 236 237 236 238 241 243 245 246 246 249 257 264 270 278 277 253 240 238 235 234 235 236 238 241 242 242 241 243 244 245 247 249 251 257
274 269 265 262 260 258 257 256 254 254 254 254 253 254 254 253 253 252 251 251 251 250 250 249 247 247 246 246 245 242 237 232 229 230 232 234 235 234 231 226 226 230 230 228 229 231 230 232 236 239 238 235 233 234 236 237 238 242 244 245 247 249 251 256 262 266 275 280 262 240 234 233 233 235 238 240 242 244 245 246 246 246 246 248 251 254 259
273 269 265 261 259 258 257 256 254 252 251 251 251 252 253 253 253 253 252 252 252 252 251 250 249 248 248 247 246 245 242 237 232 230 231 233 235 237 237 231 225 226 227 227 229 231 231 231 234 237 237 234 231 231 234 237 239 242 243 244 245 248 250 252 254 258 266 275 267 245 236 234 234 235 238 241 243 245 248 249 249 250 252 253 255 258 261
270 268 265 261 258 257 257 256 255 253 251 250 250 251 252 252 252 252 253 253 253 252 252 251 251 250 249 248 246 245 244 242 238 233 231 231 233 236 238 235 228 224 226 228 230 233 234 232 231 233 235 237 236 234 234 236 238 240 242 242 244 247 249 251 254 256 260 265 259 246 238 238 238 238 241 244 246 249 252 252 251 253 255 257 259 261 262
268 266 264 262 259 257 256 256 256 255 253 252 251 252 252 252 251 251 251 252 252 252 251 252 253 252 250 249 247 245 244 244 242 237 233 231 231 232 235 235 232 226 225 228 231 233 235 234 231 231 233 236 238 238 237 238 238 239 241 243 245 248 251 253 254 254 253 252 248 241 238 240 243 244 246 249 254 257 257 257 256 255 256 259 261 262 263
268 265 264 262 261 259 258 257 257 257 256 254 253 253 253 253 252 251 251 251 251 252 251 251 252 252 250 249 248 246 244 242 241 240 237 233 231 231 233 234 233 230 227 226 228 231 234 234 233 231 232 234 236 237 237 238 239 239 241 243 245 248 249 249 248 245 244 244 241 237 236 239 243 245 247 250 255 259 259 259 259 259 259 260 261 262 263
268 266 264 263 262 261 260 259 258 258 258 257 256 255 254 254 254 253 252 250 250 251 251 251 251 251 250 249 248 247 245 242 240 239 238 236 233 232 232 233 233 233 231 228 228 229 231 234 234 232 230 231 233 234 235 235 236 236 238 239 241 241 241 238 237 236 239 240 236 234 235 238 240 243 245 247 251 256 260 263 264 264 264 265 266 266 264
269 267 266 265 264 263 262 261 260 259 259 258 257 256 255 254 254 254 253 251 250 250 251 250 250 250 250 249 247 247 246 244 240 238 238 237 235 233 233 232 233 234 234 232 231 230 230 233 234 233 231 230 231 232 233 233 232 232 234 235 236 236 235 232 231 234 236 235 233 233 236 239 241 243 246 250 255 261 268 274 275 274 273 272 270 267 262
270 269 268 267 266 265 264 263 262 261 260 259 258 257 256 255 254 254 253 252 251 250 250 250 250 249 249 248 247 247 247 245 242 239 238 237 236 235 234 232 232 234 235 234 233 232 232 232 233 234 233 231 231 231 232 232 231 231 232 233 234 235 234 232 232 233 233 233 233 234 237 240 241 243 246 251 256 263 268 273 277 282 285 281 271 261 257
271 270 269 268 268 267 266 265 264 263 262 261 260 259 258 256 255 254 253 252 251 250 249 250 250 249 248 248 247 246 246 245 243 240 238 237 236 235 234 233 232 233 234 235 235 234 233 232 232 234 234 232 231 231 230 231 232 231 231 232 233 234 234 233 233 233 233 233 234 235 238 240 241 242 246 249 254 260 264 268 274 283 288 287 275 262 257
271 270 270 269 269 268 268 267 266 264 264 263 262 262 261 259 257 255 254 252 250 249 248 248 249 248 247 247 246 245 244 243 242 240 238 237 236 235 235 234 232 232 233 234 234 234 234 232 231 232 233 232 231 231 230 230 232 232 231 230 230 231 232 232 232 233 234 234 235 235 237 239 241 243 246 249 253 256 258 261 268 276 280 282 279 272 265
272 271 270 270 269 269 268 268 267 266 265 265 264 264 263 262 260 257 255 253 251 249 247 247 247 247 247 246 245 244 242 242 241 240 238 237 236 236 234 233 233 231 231 233 234 234 234 233 232 232 232 232 231 231 230 231 231 231 230 231 230 229 230 231 231 232 234 234 234 234 235 238 241 244 246 248 251 253 253 254 259 266 272 276 277 274 267
275 274 273 272 272 271 270 269 268 267 267 267 266 265 264 263 261 259 256 254 252 250 248 246 246 246 246 246 245 243 241 241 241 241 239 237 236 235 234 233 233 232 231 231 232 233 233 233 232 231 232 232 231 230 230 230 230 229 229 231 231 229 229 230 230 232 234 235 233 233 233 236 240 242 244 246 248 249 250 251 252 257 263 268 270 270 267
278 278 277 276 276 275 274 273 272 271 270 269 268 267 266 264 263 260 258 255 252 251 249 247 247 247 246 246 245 243 241 240 239 240 240 238 237 236 234 232 231 231 231 231 230 231 232 232 232 231 232 232 231 230 229 229 228 226 227 230 231 230 230 230 230 231 234 236 235 234 234 236 238 240 242 244 245 246 248 248 247 248 252 258 262 265 266
281 281 280 279 279 278 277 276 275 274 273 272 271 269 267 265 264 262 260 257 254 251 249 247 247 247 247 246 245 244 242 240 239 239 240 239 237 236 235 233 231 230 231 231 230 230 230 231 231 231 231 232 232 230 229 228 226 223 225 229 231 230 230 229 228 229 232 235 236 237 238 239 240 241 242 242 242 243 245 245 244 243 245 249 254 258 261
283 282 281 281 280 279 278 278 277 277 276 276 275 273 270 268 266 264 261 258 255 252 249 247 246 246 246 246 245 244 242 240 239 238 239 238 238 236 235 234 232 230 229 230 230 230 229 229 230 231 230 231 231 230 229 228 225 221 223 228 229 230 231 230 228 227 230 233 235 235 237 239 240 241 242 242 240 240 242 242 242 241 242 245 250 253 255
284 283 282 281 281 282 282 281 281 281 280 280 279 277 275 273 272 269 266 262 257 253 249 246 244 243 243 244 244 243 242 241 239 238 238 238 237 237 236 235 233 231 229 229 229 230 229 229 229 230 231 230 230 228 228 228 225 220 222 226 228 229 230 230 229 229 230 231 232 231 232 234 236 237 240 241 239 238 239 240 240 241 242 245 248 250 252
286 286 285 285 285 285 286 286 285 284 283 282 281 279 278 277 276 275 272 269 263 256 250 245 242 240 240 241 241 240 240 240 238 237 237 237 237 236 236 235 233 232 230 228 228 229 229 229 229 230 231 230 229 227 226 226 223 219 220 224 227 228 229 230 229 229 230 231 231 229 229 231 232 233 236 238 238 237 237 239 240 241 243 245 247 249 251
288 287 287 286 286 285 285 286 285 284 284 282 281 279 278 277 276 275 274 271 267 261 253 246 241 238 237 237 237 237 237 238 237 236 236 236 235 235 235 234 233 232 230 229 227 227 228 229 229 229 230 230 229 226 224 223 222 220 220 223 225 227 227 228 228 228 230 231 230 230 230 231 232 230 231 234 236 236 237 239 240 241 243 244 246 247 249
288 288 287 287 286 285 284 284 283 283 284 283 282 280 278 277 275 273 270 267 263 260 256 249 242 237 235 234 233 233 233 234 235 235 235 234 234 233 233 233 232 232 231 229 227 226 226 228 229 228 229 229 229 226 223 222 222 221 220 221 224 225 226 226 227 228 230 230 230 230 232 233 233 232 232 233 235 237 238 240 241 242 242 243 244 244 245
289 288 288 287 287 286 285 285 285 286 286 286 285 283 281 279 275 271 266 260 255 253 252 249 245 240 236 234 232 230 229 229 231 232 233 232 231 231 231 231 231 230 230 229 227 225 225 227 227 227 227 228 227 226 225 223 222 221 220 221 223 225 225 225 227 228 230 230 230 230 231 233 234 235 235 234 234 236 237 240 241 242 241 240 241 241 241
290 290 289 289 288 288 288 289 290 290 290 290 288 286 283 279 273 267 260 252 246 244 245 245 244 241 238 235 231 229 227 226 226 228 230 230 230 229 229 229 229 229 228 228 227 226 226 226 226 226 226 226 226 227 227 225 222 220 219 220 222 224 224 223 225 228 229 229 229 230 231 232 234 235 236 235 233 233 234 237 240 240 239 238 238 237 237
291 291 290 290 291 293 295 296 296 296 296 293 290 287 284 277 267 260 254 245 239 238 239 240 240 240 239 235 231 228 226 223 222 224 226 228 229 228 227 227 228 228 227 227 226 227 227 226 226 225 225 225 225 226 227 225 222 219 218 219 221 223 223 223 224 226 227 227 227 229 230 231 233 235 235 234 233 234 234 236 238 239 239 239 238 237 237
294 294 294 295 298 301 302 302 300 299 298 295 289 285 286 282 269 258 250 242 236 235 236 235 235 236 237 232 228 227 225 222 220 222 223 225 227 227 226 225 226 226 226 226 226 227 227 227 226 225 224 223 224 225 226 225 221 218 217 218 220 222 223 223 223 225 225 225 225 226 227 229 231 234 234 234 235 236 235 236 238 238 238 238 237 236 235
298 298 300 303 306 307 306 303 301 299 299 296 288 281 283 286 276 260 248 240 234 232 232 231 231 233 233 229 226 225 223 220 219 220 221 223 225 225 225 225 224 224 224 225 225 226 227 227 226 225 224 224 224 225 225 224 221 218 218 218 220 222 223 223 224 225 225 225 225 226 227 227 229 231 233 234 235 235 235 236 237 237 237 237 235 233 232
303 306 309 311 312 311 307 303 301 301 300 297 289 280 278 281 273 258 247 239 233 231 230 229 229 230 229 226 224 223 220 217 217 218 219 221 222 223 224 224 224 222 223 223 224 225 226 226 226 226 226 226 226 226 226 225 222 220 218 218 219 222 223 223 223 224 225 225 226 227 228 228 229 230 232 234 234 232 233 235 237 238 238 237 235 233 232
309 313 316 316 316 314 309 303 302 303 301 297 291 281 275 273 267 255 243 235 232 230 230 230 230 229 226 224 222 221 218 216 215 215 216 218 219 220 222 223 222 222 222 222 222 223 224 225 225 226 227 227 227 227 227 226 223 221 219 218 219 220 222 222 222 223 224 224 225 226 229 229 229 230 231 232 231 229 229 233 236 238 238 237 235 234 232
315 318 321 322 321 318 312 305 304 305 300 294 291 282 271 267 265 257 244 235 230 228 227 229 231 229 225 223 221 219 216 214 214 213 214 215 217 218 220 221 221 221 222 222 222 222 223 224 225 226 227 228 228 228 227 226 224 222 220 219 218 219 220 220 219 221 223 224 224 225 227 228 229 230 231 231 230 227 227 230 233 236 237 237 235 235 234
320 323 325 327 327 323 316 310 308 307 300 291 285 275 261 256 256 253 244 236 232 228 226 228 231 231 226 223 220 218 216 214 212 212 212 213 215 216 218 220 220 220 221 222 222 222 222 223 224 226 226 228 229 229 228 226 224 222 221 220 219 218 218 217 217 219 221 223 223 224 225 226 227 228 229 230 230 228 226 227 230 234 236 237 236 238 239
324 326 329 331 332 328 322 316 313 312 306 297 287 278 268 260 255 250 243 236 230 225 221 222 226 228 225 220 218 218 216 213 211 211 211 212 212 214 216 218 219 220 220 221 222 222 222 223 225 226 227 228 229 229 228 226 223 222 220 220 219 218 217 216 215 216 219 221 223 224 225 225 226 226 228 230 231 230 228 227 228 232 235 237 239 241 244
328 329 331 334 336 334 329 323 320 318 313 304 295 288 282 273 263 252 243 235 227 220 215 217 223 225 222 217 216 217 215 212 211 212 212 211 211 212 213 215 217 218 219 220 221 222 223 224 224 225 227 228 229 229 228 226 223 221 220 219 219 219 217 215 214 215 217 219 222 223 224 225 225 226 227 229 231 232 231 229 229 232 235 238 239 239 239
332 334 335 337 339 339 336 330 325 322 318 311 302 292 282 273 263 251 242 236 232 227 225 224 225 224 219 215 213 214 214 213 212 212 212 212 212 212 212 213 215 216 217 218 219 221 223 223 224 225 226 228 229 230 228 226 223 222 220 219 219 219 217 214 213 214 215 217 220 223 224 224 224 225 226 228 230 232 232 231 233 235 236 237 238 237 235
336 339 340 340 340 342 341 335 329 326 326 322 311 297 282 271 263 254 246 240 235 234 234 233 231 227 222 217 214 213 213 212 213 213 213 213 213 213 213 213 215 216 217 217 218 220 221 222 222 223 225 227 229 230 229 226 224 222 220 219 219 219 218 215 213 214 215 216 219 222 224 224 224 224 224 226 229 232 233 233 235 238 239 239 241 242 243
338 341 343 342 341 342 343 341 336 333 331 326 315 303 289 274 266 260 255 247 238 234 234 233 231 230 228 224 219 216 215 214 214 214 214 214 215 216 215 215 215 216 217 218 219 220 221 221 221 221 223 225 227 229 228 226 224 222 220 219 218 218 218 216 214 213 214 216 218 221 223 224 224 224 224 225 228 231 233 234 236 240 243 245 245 247 249
334 337 340 343 343 342 342 342 340 338 335 327 318 309 295 279 273 268 259 248 243 239 235 231 228 228 227 224 222 220 219 218 216 215 214 215 216 216 216 216 217 217 218 218 219 219 220 221 221 221 221 222 224 226 226 224 222 221 219 218 218 218 218 216 214 213 214 215 217 220 222 224 225 224 224 225 227 229 232 234 236 240 244 248 250 253 256
329 331 336 342 344 342 340 338 339 340 338 329 318 311 299 284 277 271 260 251 248 244 239 235 233 231 227 224 221 220 221 221 220 218 216 216 217 217 217 218 218 219 219 219 218 218 219 219 220 220 220 221 222 223 224 223 221 220 218 218 218 218 218 216 214 214 214 215 217 219 221 224 225 226 226 226 227 229 231 234 235 238 243 247 251 255 258
326 327 329 336 341 343 340 336 334 334 334 330 320 311 299 286 278 270 261 255 253 249 244 242 242 240 235 229 224 222 221 223 222 220 218 217 218 219 219 220 220 220 220 219 219 218 218 218 218 219 219 219 220 221 221 220 219 218 217 217 217 218 218 216 215 214 214 215 217 219 221 223 225 227 228 228 228 230 232 234 234 236 241 245 247 251 255
Height
5845 5844 5844 5843 5843 5843 5844 5843 5843 5843 5843 5844 5844 5844 5844 5844 5845 5845 5846 5846 5847 5847 5848 5849 5849 5850 5850 5851 5852 5853 5855 5855 5856 5857 5858 5859 5859 5860 5861 5862 5863 5865 5865 5866 5867 5867 5868 5869 5870 5870 5871 5872 5874 5875 5876 5878 5880 5881 5882 5884 5886 5888 5890 5892 5894 5896 5898 5900 5901 5903 5905 5906 5907 5908 5909 5909 5910 5911 5912 5913 5914 5914 5915 5916 5917 5917 5917
5843 5843 5842 5842 5841 5841 5842 5842 5842 5842 5842 5842 5843 5843 5843 5843 5844 5845 5845 5846 5847 5847 5848 5848 5849 5849 5850 5850 5851 5852 5854 5855 5855 5856 5857 5858 5859 5860 5861 5862 5863 5865 5866 5866 5867 5867 5868 5869 5869 5870 5871 5873 5874 5875 5876 5877 5879 5881 5882 5883 5885 5886 5889 5891 5892 5894 5896 5898 5900 5902 5903 5904 5905 5906 5907 5907 5908 5909 5910 5911 5911 5912 5913 5915 5915 5916 5916
5841 5841 5841 5840 5840 5839 5840 5840 5840 5840 5840 5840 5841 5841 5842 5842 5843 5844 5845 5845 5846 5847 5847 5848 5848 5849 5849 5850 5851 5852 5853 5854 5855 5855 5855 5856 5858 5859 5860 5862 5863 5864 5865 5866 5867 5868 5869 5869 5870 5870 5872 5873 5874 5875 5876 5877 5879 5880 5881 5882 5884 5886 5888 5889 5890 5892 5895 5897 5899 5900 5901 5902 5904 5905 5905 5906 5907 5908 5909 5910 5910 5911 5912 5913 5914 5915 5916
5839 5839 5839 5838 5838 5837 5837 5837 5838 5838 5838 5839 5839 5840 5840 5841 5842 5843 5844 5845 5845 5846 5847 5847 5847 5848 5849 5849 5850 5851 5852 5853 5854 5854 5854 5855 5856 5858 5859 5861 5862 5864 5865 5866 5867 5868 5869 5869 5870 5871 5872 5873 5874 5875 5876 5877 5879 5880 5881 5882 5883 5884 5886 5887 5889 5891 5893 5895 5897 5898 5899 5901 5902 5904 5904 5905 5906 5907 5907 5908 5909 5910 5911 5912 5913 5914 5914
5837 5837 5837 5837 5836 5835 5835 5835 5835 5836 5836 5837 5837 5838 5838 5839 5841 5842 5843 5844 5844 5845 5846 5846 5847 5847 5848 5848 5849 5850 5851 5852 5853 5853 5853 5854 5855 5857 5858 5860 5862 5863 5864 5865 5866 5868 5868 5869 5870 5871 5872 5873 5874 5875 5876 5877 5878 5879 5880 5881 5882 5883 5885 5886 5888 5890 5892 5893 5895 5897 5898 5900 5901 5903 5903 5904 5904 5905 5906 5907 5908 5908 5909 5911 5912 5913 5913
5835 5835 5835 5835 5834 5834 5833 5833 5833 5833 5834 5835 5835 5836 5836 5837 5839 5840 5841 5842 5843 5844 5845 5846 5846 5847 5847 5847 5848 5849 5850 5851 5851 5852 5853 5853 5854 5856 5858 5860 5861 5863 5864 5865 5866 5867 5868 5869 5870 5870 5871 5872 5874 5874 5875 5876 5878 5879 5880 5881 5882 5883 5884 5885 5887 5889 5890 5891 5893 5895 5897 5898 5900 5901 5902 5902 5903 5903 5904 5905 5906 5906 5907 5909 5911 5911 5911
5833 5833 5833 5833 5832 5832 5832 5831 5831 5831 5832 5832 5833 5834 5835 5836 5837 5838 5840 5841 5842 5843 5844 5844 5845 5846 5846 5847 5847 5847 5848 5849 5850 5851 5851 5852 5853 5854 5856 5858 5860 5862 5863 5865 5866 5866 5867 5868 5869 5870 5871 5872 5873 5874 5875 5876 5877 5878 5880 5881 5882 5883 5884 5885 5886 5887 5888 5890 5891 5893 5895 5897 5898 5900 5900 5901 5901 5902 5903 5903 5904 5905 5906 5907 5909 5909 5909
5831 5831 5831 5831 5830 5830 5830 5830 5829 5829 5829 5830 5831 5832 5833 5834 5834 5836 5837 5839 5840 5841 5842 5843 5843 5844 5845 5846 5846 5846 5847 5848 5849 5850 5850 5850 5851 5852 5854 5857 5859 5861 5862 5864 5865 5865 5866 5867 5868 5869 5870 5871 5872 5873 5873 5874 5876 5877 5879 5880 5881 5882 5883 5884 5885 5886 5887 5888 5890 5891 5893 5895 5896 5898 5898 5899 5899 5900 5901 5902 5902 5903 5904 5905 5906 5907 5908
5829 5829 5829 5829 5828 5828 5828 5828 5827 5827 5827 5828 5828 5829 5830 5831 5832 5834 5835 5836 5838 5839 5840 5841 5842 5843 5844 5844 5845 5845 5846 5847 5848 5848 5848 5849 5849 5850 5852 5855 5857 5859 5860 5862 5863 5864 5865 5866 5867 5868 5869 5870 5871 5871 5872 5874 5875 5876 5878 5879 5880 5881 5883 5884 5885 5886 5886 5887 5888 5890 5891 5893 5895 5896 5896 5897 5898 5898 5899 5900 5901 5902 5903 5904 5905 5906 5907
5826 5826 5826 5827 5826 5826 5826 5826 5825 5825 5825 5825 5826 5827 5828 5829 5830 5831 5833 5834 5835 5837 5838 5839 5840 5841 5842 5843 5843 5844 5845 5846 5846 5846 5847 5847 5847 5848 5850 5852 5854 5856 5858 5860 5861 5862 5864 5865 5866 5867 5868 5868 5869 5870 5872 5873 5874 5875 5876 5878 5879 5880 5881 5882 5883 5884 5884 5885 5886 5888 5889 5891 5893 5893 5894 5895 5896 5896 5897 5898 5899 5900 5901 5902 5903 5904 5904
5824 5824 5824 5824 5824 5824 5824 5824 5824 5823 5823 5823 5824 5824 5826 5827 5828 5829 5830 5832 5833 5834 5835 5836 5837 5838 5840 5841 5842 5843 5843 5844 5844 5844 5845 5845 5846 5847 5848 5850 5852 5853 5855 5856 5858 5860 5861 5863 5864 5865 5866 5867 5868 5869 5871 5872 5873 5874 5875 5876 5877 5878 5879 5880 5882 5882 5881 5882 5883 5885 5887 5889 5890 5891 5892 5893 5893 5894 5895 5897 5898 5899 5900 5901 5901 5902 5902
5822 5821 5821 5822 5822 5822 5822 5822 5822 5821 5821 5821 5821 5822 5823 5824 5825 5827 5828 5829 5830 5831 5832 5834 5835 5836 5837 5839 5840 5841 5841 5842 5842 5843 5843 5844 5844 5845 5846 5848 5849 5850 5851 5853 5854 5856 5858 5860 5862 5863 5864 5865 5866 5868 5869 5870 5871 5872 5873 5874 5876 5877 5878 5879 5879 5879 5879 5880 5881 5882 5884 5886 5888 5889 5890 5890 5891 5892 5893 5895 5896 5897 5898 5899 5899 5900 5900
5819 5819 5818 5819 5819 5819 5819 5820 5819 5819 5819 5819 5819 5819 5820 5822 5823 5824 5825 5826 5827 5828 5829 5831 5832 5833 5835 5836 5838 5839 5839 5840 5840 5841 5841 5842 5843 5843 5844 5845 5846 5847 5848 5849 5851 5853 5855 5857 5859 5860 5861 5862 5864 5865 5867 5868 5869 5870 5871 5873 5874 5875 5876 5877 5877 5877 5877 5878 5878 5879 5881 5883 5885 5886 5887 5888 5889 5890 5891 5893 5894 5895 5896 5897 5898 5898 5898
5815 5815 5815 5815 5816 5816 5817 5817 5817 5817 5817 5816 5817 5817 5818 5819 5820 5821 5822 5823 5824 5825 5826 5827 5829 5830 5832 5834 5835 5837 5838 5838 5838 5838 5839 5840 5841 5842 5842 5843 5844 5845 5846 5847 5848 5850 5851 5853 5856 5857 5858 5860 5861 5862 5864 5865 5867 5868 5869 5871 5872 5874 5875 5875 5875 5875 5875 5876 5876 5876 5878 5880 5882 5883 5884 5885 5886 5888 5890 5891 5892 5893 5895 5896 5896 5897 5897
5811 5812 5812 5812 5812 5813 5813 5814 5814 5814 5814 5814 5814 5814 5815 5815 5816 5817 5819 5820 5821 5822 5823 5824 5825 5826 5828 5830 5832 5834 5835 5836 5836 5836 5837 5838 5839 5840 5841 5841 5842 5843 5844 5845 5846 5847 5849 5850 5852 5854 5855 5856 5858 5859 5860 5862 5864 5865 5867 5869 5870 5872 5873 5873 5873 5874 5874 5874 5874 5875 5876 5878 5879 5880 5881 5882 5883 5885 5887 5889 5890 5891 5893 5893 5894 5894 5894
5807 5808 5809 5809 5809 5809 5810 5810 5810 5810 5811 5811 5811 5811 5812 5812 5813 5814 5815 5816 5817 5818 5819 5821 5822 5823 5824 5826 5828 5830 5832 5833 5834 5834 5835 5835 5836 5837 5838 5839 5840 5841 5842 5843 5843 5845 5846 5848 5849 5851 5852 5853 5854 5856 5857 5859 5861 5863 5864 5866 5868 5869 5871 5871 5872 5872 5872 5873 5873 5873 5874 5876 5877 5878 5879 5880 5881 5882 5884 5886 5888 5889 5890 5891 5891 5892 5892
5803 5804 5804 5805 5805 5805 5806 5807 5807 5807 5807 5807 5807 5808 5808 5809 5810 5811 5812 5812 5813 5814 5816 5817 5818 5819 5821 5822 5824 5826 5828 5829 5831 5832 5832 5833 5834 5835 5836 5838 5838 5839 5839 5840 5841 5842 5844 5846 5847 5848 5849 5849 5851 5853 5854 5856 5858 5859 5861 5863 5865 5866 5868 5869 5870 5870 5870 5871 5872 5872 5873 5874 5875 5875 5876 5877 5879 5880 5881 5883 5885 5886 5887 5888 5888 5889 5888
5798 5799 5799 5800 5801 5801 5802 5802 5803 5803 5804 5804 5804 5804 5804 5805 5806 5807 5808 5809 5810 5811 5812 5813 5814 5815 5817 5818 5820 5822 5823 5825 5827 5828 5830 5831 5832 5833 5834 5835 5836 5837 5837 5838 5839 5840 5841 5843 5844 5846 5847 5847 5848 5850 5851 5853 5855 5856 5858 5860 5862 5863 5865 5867 5868 5868 5868 5869 5870 5871 5871 5872 5872 5873 5874 5875 5876 5877 5879 5880 5881 5882 5883 5884 5885 5885 5884
5793 5794 5794 5795 5796 5797 5797 5798 5798 5799 5800 5800 5800 5800 5801 5801 5802 5803 5804 5805 5806 5807 5808 5808 5809 5811 5812 5814 5816 5817 5819 5820 5822 5825 5826 5828 5829 5830 5831 5832 5833 5834 5835 5835 5836 5837 5839 5840 5842 5843 5845 5845 5846 5848 5849 5850 5852 5853 5855 5857 5859 5860 5862 5864 5865 5866 5866 5867 5868 5869 5869 5870 5870 5871 5872 5873 5874 5875 5876 5877 5878 5879 5880 5880 5880 5880 5880
5788 5789 5789 5790 5791 5792 5793 5793 5794 5794 5795 5796 5797 5797 5797 5797 5798 5799 5800 5801 5802 5803 5804 5804 5805 5807 5808 5809 5811 5813 5814 5816 5818 5820 5822 5823 5825 5826 5827 5828 5830 5831 5832 5833 5834 5835 5836 5838 5840 5841 5842 5843 5844 5845 5847 5848 5849 5851 5852 5854 5855 5857 5859 5860 5862 5863 5864 5865 5866 5866 5867 5868 5869 5870 5871 5871 5872 5873 5873 5874 5875 5876 5876 5877 5877 5877 5876
5783 5784 5784 5785 5786 5787 5788 5788 5789 5789 5790 5791 5792 5793 5793 5793 5794 5795 5796 5797 5798 5799 5799 5800 5801 5802 5804 5805 5806 5808 5809 5811 5813 5815 5817 5819 5821 5822 5823 5824 5826 5828 5829 5830 5831 5832 5833 5835 5837 5838 5840 5841 5842 5843 5844 5846 5847 5848 5849 5851 5852 5854 5856 5857 5858 5859 5861 5862 5863 5864 5865 5866 5867 5868 5869 5870 5870 5870 5871 5872 5872 5873 5873 5874 5874 5873 5873
5778 5779 5779 5780 5781 5781 5782 5783 5784 5784 5785 5786 5787 5788 5788 5789 5789 5790 5791 5792 5793 5794 5795 5796 5797 5798 5799 5800 5802 5803 5804 5806 5809 5810 5812 5814 5816 5817 5818 5820 5822 5824 5825 5827 5828 5830 5831 5832 5834 5835 5837 5838 5839 5840 5842 5843 5845 5846 5847 5848 5850 5852 5853 5854 5856 5857 5859 5860 5861 5862 5863 5865 5865 5866 5867 5868 5868 5869 5869 5870 5870 5870 5870 5871 5871 5870 5870
5773 5773 5774 5774 5775 5775 5776 5777 5778 5778 5779 5780 5781 5782 5783 5784 5784 5785 5786 5787 5789 5789 5790 5791 5792 5793 5794 5796 5797 5798 5799 5801 5804 5805 5807 5808 5810 5812 5814 5816 5818 5820 5821 5823 5825 5827 5828 5829 5830 5832 5833 5835 5836 5837 5839 5840 5842 5843 5845 5846 5848 5849 5851 5852 5853 5855 5856 5858 5859 5860 5861 5862 5863 5864 5865 5866 5866 5867 5867 5867 5867 5868 5868 5868 5867 5867 5867
5767 5767 5768 5768 5768 5769 5769 5770 5771 5771 5772 5773 5774 5775 5776 5778 5778 5779 5780 5781 5783 5784 5785 5786 5787 5788 5789 5791 5792 5793 5795 5797 5799 5801 5802 5803 5805 5807 5809 5811 5814 5815 5817 5819 5821 5822 5824 5826 5827 5828 5830 5831 5833 5834 5835 5837 5838 5840 5842 5844 5845 5847 5848 5850 5851 5852 5854 5855 5856 5857 5859 5860 5861 5862 5863 5864 5864 5865 5865 5866 5865 5865 5865 5865 5865 5865 5865
5760 5760 5761 5761 5761 5761 5761 5762 5763 5763 5764 5765 5766 5768 5769 5770 5772 5772 5773 5775 5776 5778 5779 5781 5781 5782 5784 5786 5787 5788 5790 5792 5794 5795 5797 5798 5800 5802 5804 5807 5809 5810 5812 5814 5816 5817 5819 5821 5823 5824 5826 5828 5829 5831 5832 5834 5835 5837 5839 5841 5842 5844 5845 5847 5848 5850 5851 5853 5854 5855 5856 5857 5858 5859 5860 5861 5862 5863 5863 5864 5864 5863 5863 5863 5863 5863 5864
5752 5752 5753 5753 5753 5753 5753 5754 5754 5755 5756 5756 5757 5759 5760 5762 5764 5765 5765 5767 5769 5771 5773 5774 5774 5776 5778 5779 5780 5783 5785 5786 5787 5789 5791 5793 5794 5796 5799 5801 5804 5805 5807 5808 5810 5813 5815 5817 5819 5820 5822 5824 5826 5827 5829 5831 5832 5834 5836 5838 5839 5841 5842 5844 5845 5847 5848 5850 5851 5852 5853 5854 5855 5856 5858 5859 5860 5860 5861 5862 5862 5862 5862 5861 5861 5862 5862
5745 5744 5744 5744 5744 5744 5744 5744 5745 5745 5746 5746 5747 5749 5750 5752 5754 5756 5757 5759 5761 5763 5765 5767 5767 5769 5771 5772 5774 5777 5779 5780 5782 5783 5785 5787 5788 5790 5793 5796 5798 5800 5802 5803 5805 5808 5810 5812 5814 5816 5817 5819 5822 5824 5825 5827 5829 5831 5833 5835 5836 5838 5839 5840 5842 5843 5845 5846 5847 5849 5850 5851 5852 5853 5855 5856 5857 5858 5859 5859 5860 5860 5860 5860 5860 5860 5861
5737 5736 5736 5735 5735 5734 5734 5734 5734 5735 5735 5735 5736 5738 5739 5740 5743 5745 5747 5749 5751 5753 5756 5759 5760 5761 5763 5764 5766 5770 5772 5774 5776 5778 5779 5781 5782 5784 5787 5790 5792 5794 5797 5798 5800 5803 5805 5807 5809 5811 5813 5815 5817 5819 5821 5823 5825 5828 5831 5832 5833 5834 5835 5837 5839 5840 5841 5843 5844 5845 5847 5848 5849 5850 5852 5853 5854 5855 5856 5857 5857 5857 5858 5858 5858 5858 5859
5729 5728 5727 5726 5726 5725 5725 5724 5724 5724 5724 5724 5724 5725 5727 5728 5730 5733 5735 5738 5741 5743 5747 5750 5752 5753 5754 5756 5758 5761 5764 5767 5770 5772 5773 5775 5776 5778 5780 5783 5786 5788 5791 5793 5795 5798 5800 5802 5804 5806 5808 5810 5812 5814 5817 5819 5822 5825 5827 5828 5829 5831 5832 5834 5835 5837 5838 5839 5841 5843 5845 5846 5847 5848 5849 5850 5851 5851 5852 5853 5854 5855 5855 5856 5856 5857 5857
5721 5720 5719 5718 5717 5717 5716 5715 5715 5714 5714 5713 5712 5713 5715 5716 5718 5720 5722 5725 5729 5731 5735 5739 5742 5744 5746 5747 5749 5752 5756 5760 5763 5765 5767 5769 5770 5771 5773 5775 5779 5782 5785 5787 5790 5792 5794 5797 5799 5801 5803 5805 5807 5810 5813 5815 5819 5822 5824 5824 5825 5827 5829 5830 5832 5834 5835 5836 5838 5840 5842 5844 5845 5846 5846 5847 5847 5848 5849 5849 5851 5852 5852 5853 5854 5855 5856
5714 5713 5712 5711 5710 5709 5708 5708 5707 5707 5706 5705 5703 5703 5704 5705 5707 5709 5710 5713 5716 5719 5722 5727 5731 5734 5736 5737 5740 5744 5748 5752 5755 5758 5760 5762 5763 5765 5766 5768 5772 5775 5779 5782 5784 5786 5789 5792 5794 5796 5798 5799 5802 5806 5809 5811 5815 5819 5820 5821 5822 5824 5825 5827 5829 5830 5831 5833 5834 5836 5838 5839 5840 5842 5842 5843 5844 5845 5845 5846 5847 5848 5849 5850 5851 5853 5854
5708 5707 5706 5705 5704 5703 5702 5701 5700 5700 5699 5697 5695 5694 5695 5697 5699 5700 5700 5702 5704 5706 5708 5713 5719 5723 5725 5726 5730 5736 5740 5743 5747 5750 5752 5754 5756 5758 5760 5762 5765 5769 5772 5775 5778 5781 5784 5787 5789 5791 5793 5794 5797 5801 5805 5808 5812 5816 5817 5817 5818 5820 5821 5823 5825 5826 5828 5829 5830 5832 5834 5834 5835 5837 5839 5839 5840 5842 5842 5843 5844 5845 5846 5847 5849 5850 5851
5703 5702 5701 5700 5699 5697 5696 5695 5693 5692 5692 5690 5687 5686 5687 5690 5691 5691 5692 5692 5693 5694 5696 5700 5706 5711 5713 5716 5720 5726 5730 5734 5738 5742 5744 5746 5749 5751 5754 5756 5759 5762 5765 5769 5773 5776 5779 5781 5783 5785 5787 5789 5793 5797 5801 5805 5809 5812 5812 5812 5814 5816 5817 5819 5821 5823 5824 5825 5826 5828 5829 5830 5831 5834 5835 5835 5837 5838 5839 5840 5841 5841 5843 5844 5846 5847 5848
5698 5697 5695 5694 5693 5691 5689 5688 5686 5685 5684 5682 5679 5678 5680 5681 5680 5681 5682 5682 5682 5683 5685 5688 5693 5698 5702 5705 5710 5715 5720 5724 5729 5733 5736 5738 5741 5744 5747 5749 5752 5755 5759 5763 5767 5770 5773 5775 5778 5780 5782 5785 5788 5792 5797 5802 5805 5806 5806 5807 5809 5811 5813 5815 5817 5819 5820 5820 5822 5824 5826 5827 5829 5830 5831 5832 5833 5835 5836 5837 5838 5838 5840 5841 5843 5844 5845
5693 5691 5689 5687 5686 5684 5682 5680 5678 5676 5675 5673 5671 5670 5670 5669 5668 5669 5670 5671 5671 5674 5676 5679 5682 5687 5691 5694 5699 5704 5709 5714 5719 5723 5726 5730 5734 5737 5740 5743 5746 5750 5753 5757 5760 5764 5767 5769 5772 5775 5777 5780 5783 5788 5794 5798 5799 5799 5801 5803 5804 5806 5808 5811 5813 5814 5815 5817 5819 5821 5823 5825 5826 5827 5828 5829 5830 5831 5833 5834 5834 5835 5837 5838 5840 5841 5842
5686 5684 5682 5680 5678 5676 5674 5671 5669 5668 5666 5663 5660 5658 5657 5655 5654 5654 5656 5658 5660 5664 5667 5669 5673 5677 5681 5684 5688 5693 5698 5703 5708 5713 5717 5722 5726 5729 5733 5736 5740 5743 5746 5750 5754 5758 5761 5763 5765 5769 5772 5775 5780 5785 5789 5791 5792 5793 5796 5798 5799 5801 5804 5807 5809 5810 5812 5814 5816 5818 5820 5822 5823 5824 5825 5826 5827 5828 5830 5831 5831 5832 5834 5835 5836 5838 5839
5680 5678 5676 5673 5672 5669 5666 5663 5661 5658 5655 5652 5648 5645 5643 5642 5640 5640 5642 5645 5649 5653 5657 5661 5666 5669 5670 5674 5679 5683 5687 5692 5698 5703 5708 5713 5717 5722 5726 5730 5733 5736 5740 5744 5748 5752 5754 5756 5760 5764 5768 5772 5777 5780 5782 5784 5786 5788 5790 5792 5794 5796 5799 5802 5804 5806 5808 5811 5813 5815 5817 5818 5819 5820 5821 5822 5824 5825 5826 5827 5828 5829 5830 5832 5833 5834 5835
5674 5672 5670 5668 5666 5663 5659 5655 5652 5649 5645 5642 5639 5636 5635 5633 5631 5631 5633 5636 5640 5644 5648 5654 5658 5660 5661 5666 5671 5673 5676 5682 5689 5694 5699 5704 5709 5714 5719 5723 5726 5730 5734 5738 5742 5745 5748 5751 5755 5760 5764 5768 5772 5773 5774 5776 5779 5782 5784 5787 5789 5791 5794 5797 5799 5801 5804 5807 5810 5812 5813 5814 5816 5816 5818 5819 5821 5822 5823 5824 5825 5826 5828 5828 5829 5830 5832
5669 5667 5666 5663 5660 5656 5651 5647 5644 5641 5638 5635 5633 5631 5630 5628 5626 5626 5627 5630 5634 5638 5642 5647 5650 5651 5653 5659 5663 5663 5667 5675 5682 5686 5691 5696 5701 5706 5712 5716 5720 5724 5728 5732 5736 5739 5743 5747 5751 5755 5759 5763 5765 5765 5765 5768 5773 5776 5779 5782 5784 5787 5790 5793 5795 5798 5801 5804 5806 5808 5809 5810 5812 5813 5815 5817 5818 5819 5821 5822 5823 5824 5824 5825 5826 5827 5829
5665 5663 5661 5657 5654 5649 5645 5641 5638 5635 5633 5630 5628 5627 5626 5625 5624 5624 5624 5626 5630 5633 5636 5640 5643 5644 5647 5652 5655 5656 5662 5669 5674 5678 5683 5688 5693 5699 5704 5709 5713 5718 5722 5726 5730 5734 5738 5741 5745 5749 5753 5755 5756 5756 5759 5763 5769 5772 5775 5778 5781 5784 5786 5789 5792 5795 5798 5801 5803 5804 5806 5807 5809 5810 5811 5813 5815 5816 5817 5819 5820 5821 5821 5822 5823 5823 5824
5661 5659 5656 5652 5648 5644 5640 5636 5633 5631 5628 5626 5625 5624 5623 5623 5622 5622 5622 5624 5627 5630 5632 5635 5638 5640 5643 5647 5649 5652 5657 5662 5666 5671 5676 5681 5686 5692 5697 5701 5706 5712 5716 5720 5725 5729 5732 5736 5740 5743 5745 5747 5749 5752 5756 5761 5765 5769 5772 5775 5778 5780 5782 5786 5789 5791 5794 5797 5799 5801 5802 5804 5805 5807 5808 5809 5811 5812 5814 5815 5817 5818 5819 5819 5819 5819 5820
5657 5655 5651 5647 5643 5639 5635 5633 5630 5628 5625 5623 5622 5621 5620 5620 5620 5620 5621 5622 5624 5627 5630 5632 5634 5636 5639 5642 5645 5648 5652 5657 5661 5665 5670 5674 5679 5685 5689 5693 5700 5705 5709 5714 5719 5722 5726 5730 5734 5736 5738 5741 5745 5749 5752 5757 5761 5764 5767 5770 5773 5776 5778 5782 5785 5787 5789 5792 5795 5797 5798 5800 5802 5803 5804 5805 5807 5809 5811 5812 5814 5815 5816 5816 5815 5815 5816
5654 5651 5647 5643 5639 5635 5632 5629 5627 5625 5622 5621 5619 5619 5619 5619 5618 5618 5619 5620 5622 5625 5628 5630 5631 5633 5636 5639 5641 5645 5649 5652 5656 5660 5664 5668 5673 5678 5683 5688 5694 5699 5703 5708 5712 5716 5720 5725 5727 5729 5732 5737 5741 5744 5748 5752 5756 5760 5763 5766 5769 5772 5774 5777 5780 5782 5785 5787 5790 5791 5793 5795 5797 5799 5800 5802 5804 5806 5807 5809 5810 5812 5812 5811 5810 5810 5811
5650 5647 5644 5640 5636 5632 5629 5627 5625 5622 5620 5619 5618 5617 5617 5617 5617 5617 5618 5619 5621 5623 5625 5627 5629 5630 5633 5636 5639 5642 5646 5649 5652 5656 5659 5663 5668 5673 5677 5682 5688 5693 5697 5701 5705 5710 5714 5717 5719 5723 5728 5733 5735 5739 5743 5748 5752 5755 5758 5761 5764 5766 5769 5772 5775 5778 5780 5782 5785 5787 5788 5790 5792 5795 5796 5798 5800 5802 5804 5806 5807 5807 5807 5806 5806 5808 5810
5647 5644 5641 5637 5634 5630 5628 5625 5623 5621 5619 5617 5616 5615 5615 5615 5616 5616 5617 5619 5620 5622 5624 5625 5627 5628 5631 5634 5637 5639 5642 5645 5649 5652 5655 5659 5663 5668 5673 5678 5682 5687 5691 5695 5699 5704 5707 5710 5713 5719 5724 5727 5729 5733 5738 5743 5747 5750 5753 5756 5758 5761 5764 5767 5770 5772 5775 5778 5780 5782 5784 5786 5788 5791 5793 5795 5797 5799 5801 5802 5803 5803 5802 5803 5805 5808 5811
5644 5641 5638 5635 5632 5629 5626 5624 5622 5620 5618 5616 5615 5615 5614 5614 5615 5616 5617 5618 5620 5621 5622 5623 5625 5626 5629 5631 5634 5636 5639 5643 5646 5648 5651 5655 5659 5664 5668 5672 5676 5680 5685 5689 5694 5698 5701 5704 5709 5714 5718 5720 5724 5728 5733 5738 5742 5745 5747 5750 5752 5755 5758 5762 5765 5768 5770 5773 5775 5777 5779 5781 5784 5787 5789 5791 5794 5796 5797 5799 5799 5798 5799 5801 5803 5806 5806
5642 5639 5636 5634 5631 5628 5626 5623 5621 5619 5617 5616 5615 5614 5614 5614 5614 5615 5616 5617 5618 5620 5621 5622 5623 5625 5627 5629 5631 5633 5636 5640 5642 5645 5648 5652 5655 5658 5662 5666 5670 5674 5679 5683 5687 5690 5694 5699 5704 5708 5711 5715 5719 5724 5728 5733 5737 5740 5742 5745 5747 5750 5753 5757 5760 5762 5765 5768 5770 5772 5774 5777 5780 5782 5785 5788 5790 5791 5793 5795 5795 5795 5796 5798 5799 5799 5798
5641 5638 5635 5632 5630 5627 5625 5623 5621 5619 5617 5616 5615 5614 5614 5614 5614 5614 5615 5616 5617 5618 5620 5621 5622 5624 5625 5627 5628 5631 5633 5636 5639 5642 5645 5648 5651 5654 5658 5661 5665 5669 5674 5677 5680 5684 5689 5693 5698 5702 5706 5711 5715 5719 5724 5728 5731 5734 5737 5740 5742 5745 5748 5752 5755 5758 5761 5763 5765 5767 5770 5772 5775 5778 5781 5784 5786 5787 5789 5791 5792 5792 5793 5794 5794 5794 5796
5640 5637 5634 5632 5629 5627 5624 5622 5620 5618 5617 5616 5615 5614 5614 5613 5613 5613 5614 5615 5616 5617 5618 5619 5620 5622 5623 5625 5627 5629 5631 5633 5636 5639 5642 5645 5647 5651 5654 5658 5662 5665 5668 5672 5675 5679 5684 5688 5693 5697 5702 5706 5709 5713 5718 5722 5725 5729 5732 5735 5737 5740 5744 5747 5750 5753 5756 5758 5761 5763 5765 5768 5771 5774 5777 5780 5781 5783 5785 5787 5789 5790 5790 5790 5791 5792 5795
5638 5636 5634 5631 5628 5626 5624 5622 5620 5618 5617 5616 5615 5614 5613 5613 5613 5613 5613 5614 5615 5615 5616 5617 5618 5619 5621 5623 5624 5626 5628 5630 5632 5635 5638 5641 5644 5647 5650 5654 5657 5660 5663 5667 5671 5675 5679 5684 5688 5692 5695 5699 5703 5707 5711 5715 5719 5723 5727 5730 5732 5735 5739 5742 5745 5748 5751 5754 5756 5759 5761 5764 5767 5770 5773 5776 5777 5779 5781 5784 5786 5787 5786 5786 5787 5790 5792
5637 5635 5632 5630 5628 5626 5623 5621 5619 5618 5616 5615 5614 5613 5613 5613 5612 5612 5613 5613 5613 5614 5614 5615 5616 5617 5618 5620 5622 5624 5626 5627 5630 5632 5635 5638 5640 5643 5646 5649 5652 5655 5658 5662 5666 5670 5674 5678 5682 5685 5689 5693 5697 5701 5705 5709 5714 5718 5721 5724 5727 5730 5734 5737 5741 5744 5747 5750 5753 5755 5758 5761 5764 5767 5770 5772 5774 5776 5778 5780 5782 5783 5782 5782 5783 5785 5788
5636 5634 5631 5629 5627 5625 5623 5621 5619 5617 5615 5614 5613 5613 5612 5611 5611 5611 5611 5612 5612 5613 5613 5613 5614 5615 5616 5617 5619 5621 5622 5624 5626 5629 5632 5634 5637 5639 5642 5644 5647 5650 5653 5657 5661 5664 5669 5673 5676 5679 5683 5688 5691 5695 5699 5703 5708 5712 5715 5718 5721 5725 5728 5732 5736 5740 5744 5747 5750 5753 5755 5757 5760 5763 5766 5769 5771 5773 5775 5777 5778 5778 5779 5778 5779 5780 5782